Regional Weather Roundup
Issued by NWS Cleveland, OH

Home | Current Version | Previous Version | Graphics & Text | Print | Product List | Glossary On
Versions: 1 2 3 4 5 6 7 8 9 10 11 12 13 14 15 16 17 18 19 20 21 22 23 24 25 26 27 28 29 30 31 32 33 34 35 36 37 38 39 40 41 42 43 44 45 46 47 48 49 50
000
ASUS41 KCLE 181412
RWRCLE
OHIO REGIONAL WEATHER ROUNDUP
NATIONAL WEATHER SERVICE WILMINGTON, OH
900 AM EST MON DEC 18 2017

NOTE: "FAIR" INDICATES FEW OR NO CLOUDS BELOW 12,000 FEET WITH NO
SIGNIFICANT WEATHER AND/OR OBSTRUCTIONS TO VISIBILITY.

OHZ001>008-015>018-024>027-034-035-043-044-181500-
   NORTHWEST OHIO

CITY           SKY/WX    TMP DP  RH WIND       PRES   REMARKS
DEFIANCE       LGT RAIN  39  37  92 SW9       29.99S FOG
FINDLAY        CLOUDY    40  36  86 SW12      30.00R FOG
TOLEDO EXPRESS CLOUDY    39  38  96 S8        29.99R FOG
TOLEDO EXEC    CLOUDY    40  36  86 SW13      30.00S FOG
LIMA           FOG       38  38 100 SW10      30.01S VSB 1/4
$$

OHZ009>014-019>023-028>033-038-089-181500-
   NORTHEAST OHIO

CITY           SKY/WX    TMP DP  RH WIND       PRES   REMARKS
CLE-HOPKINS    CLOUDY    39  34  82 S10       30.04S
CLE-LAKEFRONT  CLOUDY    41  34  76 S13       30.01S
CUY CO. ARPT   CLOUDY    39  32  75 S12       30.01F
LORAIN-ELYRIA  CLOUDY    37  31  78 SW9       30.02S
ASHTABULA      CLOUDY    36  32  85 S10       30.01S
AKRON-CANTON   CLOUDY    37  34  89 SW10      30.03F FOG
WOOSTER        CLOUDY    37  36  96 SW10      30.03F FOG
MANSFIELD      FOG       37  37 100 S10       30.02S VSB 1
YOUNGSTOWN     CLOUDY    37  33  85 SW10      30.02S
$$

OHZ042-051>053-060>062-070>072-077>081-181500-
  SOUTHWEST OHIO

CITY           SKY/WX    TMP DP  RH WIND       PRES   REMARKS
CINC-COVINGTON DRZL/FOG  43  43 100 SW7       30.09R VSB 1/8
CINC-LUNKEN    CLOUDY    44  43  96 SW7       30.12R FOG
HAMILTON       CLOUDY    44  42  93 SW6       30.09S
DAYTON         DRIZZLE   41  41 100 SW15      30.06R
WRIGHT-PAT AFB DRIZZLE   42  42 100 SW12      30.05R FOG
DAYTON GENERAL CLOUDY    42  41  96 SW12      30.07R FOG
WILMINGTON     CLOUDY    41  41 100 SW13      30.07S FOG
$$

OHZ036-037-039>041-045>050-054>059-063>069-073>076-082>088-181500-
  CENTRAL AND SOUTHEAST OHIO

CITY           SKY/WX    TMP DP  RH WIND       PRES   REMARKS
COLUMBUS       DRIZZLE   41  39  93 S8        30.06S
OSU AIRPORT    CLOUDY    40  40 100 S9        30.05S FOG
BOLTON FIELD   CLOUDY    39  37  93 SW8       30.06S FOG
RICKENBACK AFB DRIZZLE   39  39 100 S9        30.06F
NEWARK         CLOUDY    40  38  93 SW6       30.05F FOG
MARION         NOT AVBL
LANCASTER      CLOUDY    40  39  97 S8        30.07S FOG
ZANESVILLE     CLOUDY    41  37  86 S8        30.07S
NEW PHILLY     CLOUDY    39  36  89 S6        30.07F
$$




USA.gov is the U.S. government's official web portal to all federal, state and local government web resources and services.